User: anonymous
Location: Caltech
(34.1382°N, 118.1253°W)
Time: 01:23:58
(UTC-07:00)
Language:

Cosmos 2219 - Orbit

View from above orbital plane
View from above orbital plane
View from above satellite
View from above satellite

Ground track
Ground track

The orbit data is extracted from the following two-line orbital elements,

1 22219U 92076A   14204.45343979 -.00000237  00000-0 -10094-3 0  5576
2 22219 071.0590 251.1975 0018738 215.3049 239.3603 14.13501088118468
Epoch (UTC): 23 July 2014 10:52:57
Eccentricity: 0.0018738
inclination: 71.0590°
perigee height: 834 km
apogee height: 861 km
right ascension of ascending node: 251.1975°
argument of perigee: 215.3049°
revolutions per day: 14.13501088
mean anomaly at epoch: 239.3603°
orbit number at epoch: 11846

The dashed part of the orbit path shows where the satellite is in the earth's shadow,  

DLR